sat.trackr.live / text

‹ back to catalog

ICESAT-2

NORAD 43613 · 2018-070A

PAYLOAD ACTIVE UNKNOWN

§ Identity

Operator
Country
US
Launch date
2018-09-15
Launch site
AFWTR
Launch vehicle
Mass (kg)
RCS (m²)

Purposes: earth_obs

External: N2YO · Heavens-Above · Gunter

§ Orbital elements

Epoch: 2026-05-25T04:07:30.589248Z

Period
94.22 min
Inclination
92.0051°
Eccentricity
0.0003188
Mean motion
15.28298162 rev/d
Perigee alt
478.7 km
Apogee alt
483.1 km
Semi-major
6,859.0 km
B*
3.2868e-4
RAAN
284.7660°
Arg perigee
123.1538°
Mean anomaly
237.0018°
Rev number
42,894

§ Raw data

ICESAT-21 43613U 18070A   26145.17188182  .00009058  00000+0  32868-3 0  99982 43613  92.0051 284.7660 0003188 123.1538 237.0018 15.28298162428944

JSON: /api/v1/satellites/43613 · /tle

For live sub-satellite position, see the globe view (requires WebGL).

§ Visibility from observer

Set your observer location to see the next 7 days of passes ≥ 10°. The values pass through the URL so the page stays shareable.

No JS? Fill the form by hand. The geolocation button needs JavaScript.

§ Radio — SatNOGS DB

ModeDescriptionDownlinkUplink
FM Mode S downlink 2.279 GHz

1 transmitter · refreshed weekly from db.satnogs.org